SCP
0 0 0 0 0 0 0 0 0 0 0 0 0 0 0 0 0 0 0 0 0 0 0 0 0 0 0 0 0 0 0 0 0 0 0 0 0 0 0 0 0 0 0 0 0 0 0 0 0
0 0 0 0 0 0 0 0 0 0 0 0 0 0 0 0 0 0 0 0 0 0 0 0 0 0 0 0 0 0 0 0 0 0 0 0 0 0 0 0 0 0 0 0 0 0 0 0 0
0 0 0 0 0 0 0 0 0 0 0 0 0 0 0 0 0 0 0 0 0 0 0 0 0 0 0 0 0 0 0 0 0 0 0 0 0 0 0 0 0 0 0 0 0 0 0 0 0
0 0 0 0 0 0 0 0 0 0 0 0 0 0 0 0 0 0 0 0 0 0 0 0 0 1 0 0 0 0 0 0 0 0 0 0 0 0 0 0 0 0 0 0 0 0 0 0 0
0 0 0 0 0 0 0 0 0 0 0 0 0 0 0 0 0 0 0 0 0 0 0 0 0 0 0 0 0 0 0 0 0 0 0 0 0 0 0 0 0 0 0 0 0 0 0 0 0
0 0 0 0 0 0 0 0 0 0 0 0 0 0 0 0 0 0 0 0 0 0 0 0 0 0 0 0 0 0 0 0 0 0 0 0 0 0 0 0 0 0 0 0 0 0 0 0 0
0 0 0 0 0 0 0 0 0 0 0 0 0 0 0 0 0 0 0 0 0 0 0 0 0 0 0 0 0 0 0 0 0 0 0 0 0 0 0 0 0 0 0 0 0 0 0 0 0
0 0 0 0 0 0 0 0 0 0 0 0 0 0 0 0 0 0 0 0 0 0 0 0 0 0 0 0 0 0 0 0 0 0 0 0 0 0 0 0 0 0 0 0 0 0 0 0 0
0 0 0 0 0 0 0 0 0 0 0 0 0 0 0 0 0 0 0 0 0 0 0 0 0 0 0 0 0 0 0 0 0 0 0 0 0 0 0 0 0 0 0 0 0 0 0 0 0
0 0 0 0 0 0 0 0 0 0 0 0 0 0 0 0 0 0 0 0 0 0 0 0 0 0 0 0 0 0 0 0 0 0 0 0 0 0 0 0 0 0 0 0 0 0 0 0 0
0 0 0 0 0 0 0 0 0 0 0 0 0 0 0 0 0 0 0 0 0 0 0 0 0 0 0 0 0 0 0 0 0 0 0 0 0 0 0 0 0 0 0 0 0 0 0 0 0
0 0 0 0 0 0 0 0 0 0 0 0 0 0 0 0 0 0 0 0 0 0 0 0 0 0 0 0 0 0 0 0 0 0 0 0 0 0 0 0 0 0 0 0 0 0 0 0 0
0 0 0 0 0 0 0 0 0 0 0 0 0 0 0 0 0 0 0 0 0 0 0 0 0 0 0 0 0 0 0 0 0 0 0 0 0 0 0 0 0 0 0 0 0 0 0 0 0
0 0 0 0 0 0 0 0 0 0 0 0 0 0 0 0 0 0 0 0 0 0 0 0 0 0 0 0 0 0 0 0 0 0 0 0 0 0 0 0 0 0 0 0 0 0 0 0 0
0 0 0 0 0 0 0 0 0 0 0 0 0 0 0 0 0 0 0 0 0 0 0 0 0 0 0 0 0 0 0 0 0 0 0 0 0 0 0 0 0 0 0 0 0 0 0 0 0
0 0 0 0 0 0 0 0 0 0 0 0 0 0 0 0 0 0 0 0 0 0 0 0 0 0 0 0 0 0 0 0 0 0 0 0 0 0 0 0 0 0 0 0 0 0 0 0 0
0 0 0 0 0 0 0 0 0 0 0 0 0 0 0 0 0 0 0 0 0 0 0 0 0 0 0 0 0 0 0 0 0 0 0 0 0 0 0 0 0 0 0 0 0 0 0 0 0
0 0 0 0 0 0 0 0 0 0 0 0 0 0 0 0 0 0 0 0 0 0 0 0 0 0 0 0 0 0 0 0 0 0 0 0 0 0 0 0 0 0 0 0 0 0 0 0 0
0 0 0 0 0 0 0 0 0 0 0 0 0 0 0 0 0 0 0 0 0 0 0 0 0 0 0 0 0 0 0 0 0 0 0 0 0 0 0 0 0 0 0 0 0 0 0 0 0
0 0 0 0 0 0 0 0 0 0 0 0 0 0 0 0 0 0 0 0 0 0 0 0 0 0 0 0 0 0 0 0 0 0 0 0 0 0 0 0 0 0 0 0 0 0 0 0 0
0 0 0 0 0 0 0 0 0 0 0 0 0 0 0 0 0 0 0 0 0 0 0 0 0 0 0 0 0 0 0 0 0 0 0 0 0 0 0 0 0 0 0 0 0 0 0 0 0
0 0 0 0 0 0 0 0 0 0 0 0 0 0 0 0 0 0 0 0 0 0 0 0 0 0 0 0 0 0 0 0 0 0 0 0 0 0 0 0 0 0 0 0 0 0 0 0 0
0 0 0 0 0 0 0 0 0 0 0 0 0 0 0 0 0 0 0 0 0 0 0 0 0 0 0 0 0 0 0 0 0 0 0 0 0 0 0 0 0 0 0 0 0 0 0 0 0
0 0 0 0 0 0 0 0 0 0 0 0 0 -0 0 0 0 0 0 0 0 0 0 0 0 0 0 0 0 0 0 0 0 0 0 0 0 0 0 0 0 0 0 0 0 0 0 0 0
0 0 0 0 0 0 0 0 0 0 0 0 0 0 0 0 0 0 0 0 0 0 0 0 0 0 0 0 0 0 0 0 0 0 0 0 0 0 0 0 0 0 0 0 0 0 0 0 0
0 0 0 0 0 0 0 0 0 0 0 0 0 0 0 0 0 0 0 0 0 0 0 0 0 0 0 0 0 0 0 0 0 0 0 0 0 0 0 0 0 0 0 0 0 0 0 0 0
0 0 0 0 0 0 0 0 0 0 0 0 0 0 0 0 0 0 0 0 0 0 0 0 0 0 0 0 0 0 0 0 0 0 0 0 0 0 0 0 0 0 0 0 0 0 0 0 0
0 0 0 0 0 0 0 0 0 0 0 0 0 0 0 0 0 0 0 0 0 0 0 0 0 0 0 0 0 0 0 0 0 0 0 0 0 0 0 0 0 0 0 0 0 0 0 0 0
0 0 0 0 0 0 0 0 0 0 0 0 0 0 0 0 0 0 0 0 0 0 0 0 0 0 0 0 0 0 0 0 0 0 0 0 0 0 0 0 0 0 0 0 0 0 0 0 0
0 0 0 0 0 0 0 0 0 0 0 0 0 0 0 0 0 0 0 0 0 0 0 0 0 0 0 0 0 0 0 0 0 0 0 0 0 0 0 0 0 0 0 0 0 0 0 0 0
Wind_Speed
3 2 3 5 7 5 4 6 4 4 3 2 4 6 6 8 8 5 1 5 6 7 6 8 11 13 14 13 13 12 12 12 12 12 12 10 9 9 8 8 9 10 10 11 10 10 10 10 11
2 2 5 6 6 1 6 5 5 5 2 1 2 3 3 6 4 3 2 6 6 7 6 6 10 12 13 13 13 13 13 13 13 12 11 10 9 8 8 8 8 9 9 9 9 9 9 9 10
2 5 5 5 4 5 6 5 5 3 1 1 2 3 4 5 4 4 5 7 6 6 5 7 11 12 13 13 13 13 14 13 12 11 10 10 9 9 9 8 8 9 9 9 8 8 8 9 10
4 6 6 4 4 7 7 6 2 2 1 2 2 4 4 3 3 3 6 9 9 6 5 6 10 12 13 13 13 13 13 13 12 11 11 11 10 10 9 9 9 9 9 8 8 9 9 10 10
5 5 4 2 6 7 6 6 3 4 3 2 2 4 6 2 1 4 7 10 10 7 6 6 9 11 12 13 13 13 13 12 12 12 12 11 11 11 10 10 9 9 9 9 9 9 10 10 11
5 5 3 3 7 8 6 4 4 4 3 1 2 3 7 1 2 3 6 7 7 7 6 5 10 10 11 12 13 13 13 13 13 13 12 12 12 11 11 10 10 10 10 10 10 10 10 11 11
5 4 2 3 5 7 5 2 3 3 3 5 4 3 6 2 3 5 5 5 5 5 5 5 5 8 11 12 12 13 13 13 14 13 13 12 12 11 11 11 11 11 11 11 10 10 10 11 11
5 4 1 3 4 6 3 3 3 5 6 3 6 6 7 1 5 7 5 4 4 4 5 6 5 6 6 7 11 12 12 13 13 13 11 10 11 11 10 9 11 12 12 11 11 10 10 11 11
4 4 3 5 6 6 2 2 2 2 3 3 5 7 4 4 7 7 4 3 4 6 6 6 6 6 6 5 7 9 11 12 12 10 12 9 5 5 5 6 11 12 12 12 11 11 10 10 10
5 4 9 7 6 4 3 3 3 3 5 5 7 6 3 5 8 10 11 13 13 14 10 7 8 7 6 5 5 4 5 6 6 5 7 5 4 4 4 7 9 11 11 11 12 11 10 7 4
6 8 7 6 6 4 4 4 3 4 10 11 11 9 6 7 8 12 13 12 17 13 10 10 9 8 8 5 5 3 3 4 5 7 7 6 4 3 3 3 5 5 6 5 7 6 4 4 3
6 8 6 5 3 3 4 4 4 7 16 9 10 6 7 11 15 17 18 17 12 10 12 11 9 9 9 7 6 5 4 4 5 6 7 6 4 4 4 3 3 3 2 3 3 3 4 4 4
6 7 5 7 7 6 6 8 6 12 19 8 7 7 10 12 16 15 15 12 10 13 13 13 12 12 10 8 7 7 7 7 6 6 7 8 6 6 5 4 3 3 3 3 3 4 4 4 3
5 5 6 6 6 5 7 10 5 19 13 7 8 11 11 13 15 12 14 15 15 18 17 15 16 15 12 11 10 9 8 7 7 7 8 9 7 6 6 5 4 3 3 3 3 4 4 3 2
3 6 10 7 7 6 4 10 12 20 7 8 10 11 11 13 13 17 19 19 20 18 16 17 18 16 15 14 13 9 8 8 8 8 9 9 8 8 7 6 5 4 3 4 3 3 3 3 2
2 3 8 8 5 5 7 14 19 9 5 11 12 10 10 12 14 18 18 18 18 16 16 18 16 18 19 17 14 10 9 10 9 8 8 10 10 9 8 6 5 5 4 3 3 3 3 2 2
2 6 9 12 6 6 8 13 15 5 6 11 12 12 11 13 14 16 18 18 17 18 17 17 19 20 20 17 12 10 9 10 8 7 8 9 10 10 8 7 6 6 4 3 3 2 2 2 2
11 9 8 11 7 4 7 14 16 10 7 11 13 13 14 16 22 19 14 14 14 14 15 17 18 18 15 11 7 6 7 8 8 9 10 11 10 11 9 7 7 7 5 4 3 3 2 2 2
6 8 12 14 10 5 13 19 19 18 15 15 15 17 19 20 23 18 13 10 10 11 14 17 18 17 14 13 13 13 14 13 12 11 12 13 12 12 10 8 8 7 7 6 5 4 3 2 2
7 10 15 14 10 7 14 21 15 16 19 20 19 20 21 19 19 19 13 8 10 12 14 15 18 18 18 17 15 8 8 7 8 7 8 11 11 12 11 11 10 9 6 7 6 5 4 2 2
9 11 13 13 8 6 11 14 11 13 15 17 18 18 19 19 20 20 16 8 6 10 12 14 17 18 19 14 8 5 4 3 6 8 10 11 12 13 12 13 11 10 9 9 9 7 7 5 2
13 13 14 12 8 7 3 16 8 12 11 14 19 16 16 17 16 15 13 10 7 10 10 13 14 16 16 15 14 17 15 15 15 11 11 11 13 14 13 13 13 12 10 9 9 7 4 6 4
13 6 7 7 6 7 4 13 11 8 9 14 17 16 15 14 10 9 9 9 9 7 8 10 11 14 15 17 18 18 16 11 6 6 11 11 11 12 13 14 13 12 11 11 10 8 6 4 6
5 2 2 3 1 10 9 13 13 8 11 9 11 12 12 9 8 8 7 7 7 5 4 4 7 10 12 15 16 18 17 12 11 10 13 11 9 10 13 13 13 13 11 12 11 10 9 6 6
4 3 4 5 3 12 5 9 12 9 8 8 8 9 8 6 7 9 10 10 9 6 4 3 5 7 9 13 15 16 15 14 16 14 14 13 10 11 16 15 14 13 12 12 11 11 10 9 8
7 9 8 7 8 9 3 13 11 7 5 6 7 8 8 8 7 7 9 8 8 6 4 4 5 6 8 11 12 11 11 10 10 12 12 14 13 13 14 16 14 13 13 12 11 10 10 8 8
6 8 8 6 7 13 13 12 10 4 7 8 8 7 7 8 8 8 9 8 7 6 5 5 6 6 7 9 10 10 11 11 11 10 10 10 9 10 14 16 15 14 14 14 13 10 11 10 9
6 4 3 5 6 12 15 16 14 5 8 6 5 6 7 8 9 10 10 10 9 7 5 3 4 6 7 8 10 10 11 12 10 9 12 12 11 11 14 16 16 15 14 14 14 11 11 11 10
6 5 6 6 6 8 10 16 6 1 3 6 8 9 11 12 13 14 14 13 13 12 10 8 6 5 6 7 8 10 10 10 10 11 13 12 12 14 16 17 17 17 17 15 15 14 14 14 12
11 13 12 11 13 10 12 17 10 9 9 10 11 12 13 14 15 16 16 17 18 18 16 14 11 9 8 7 8 10 9 9 11 13 13 13 14 15 16 16 18 18 18 18 18 17 17 17 16
Wind_Direction
356 49 69 56 50 45 267 252 239 264 241 203 163 168 182 180 175 218 242 144 144 147 167 171 171 176 176 174 172 174 174 161 143 126 115 110 106 103 99 91 87 86 84 80 74 68 61 55 50
345 34 54 58 81 349 269 248 244 239 254 128 148 158 187 229 220 231 198 183 156 149 154 155 163 172 175 174 172 169 160 144 132 125 122 122 121 119 117 109 101 97 92 87 82 75 68 61 55
31 47 77 74 126 199 246 240 231 247 242 202 230 222 214 227 213 222 203 167 153 148 147 152 156 164 166 165 163 157 147 140 135 134 138 141 140 137 132 126 117 109 102 95 89 83 77 70 63
61 42 53 75 236 231 231 251 243 269 257 224 233 267 256 234 208 205 163 156 152 154 151 159 160 166 166 163 160 156 152 149 148 153 159 157 152 146 141 134 125 116 110 103 97 91 85 78 70
57 69 54 324 262 259 251 263 232 221 228 228 204 266 273 234 69 132 151 160 161 160 160 169 170 174 176 177 173 169 167 164 162 167 168 163 157 151 146 139 131 124 117 110 103 96 88 81 75
54 63 84 265 271 281 274 251 166 200 244 261 205 262 263 122 137 165 160 160 159 158 162 171 178 180 185 189 187 184 180 174 171 170 167 164 160 156 150 144 137 129 120 110 101 92 85 79 74
101 101 194 254 285 293 285 147 183 208 237 231 193 218 273 226 182 148 147 144 154 164 165 176 180 180 188 192 191 189 183 177 172 170 167 164 161 157 151 146 140 132 122 112 102 92 84 77 72
121 102 254 266 260 271 268 187 237 205 238 226 167 201 254 254 125 117 118 140 171 191 188 183 178 173 179 187 189 184 177 174 172 169 160 156 155 151 148 148 143 135 127 119 111 102 92 83 75
91 82 239 236 222 254 266 249 263 202 249 238 216 222 234 114 121 121 136 185 210 215 211 195 185 178 173 173 180 175 175 175 173 160 150 135 123 126 137 154 144 138 132 125 119 111 100 86 77
101 169 229 222 210 242 282 248 268 273 271 257 257 247 141 149 164 173 185 199 205 209 206 198 190 181 173 172 166 161 162 166 155 145 139 127 125 134 133 136 131 130 130 127 121 112 101 87 65
168 204 231 241 232 254 270 258 238 234 262 230 232 241 177 182 198 204 206 207 211 209 202 199 193 182 176 173 165 161 153 148 147 148 142 139 133 131 112 97 95 89 96 92 105 99 89 89 85
197 237 230 245 219 234 246 268 256 218 241 229 224 236 175 197 208 212 214 217 211 204 206 199 191 187 186 177 174 170 166 163 165 163 157 152 149 147 143 131 131 124 120 125 119 118 110 98 90
220 256 244 242 258 257 262 253 253 255 255 262 251 241 217 214 219 222 224 225 211 213 210 200 192 195 189 184 183 182 183 180 173 168 171 167 165 164 157 152 149 148 146 148 145 136 125 113 97
241 259 278 267 249 240 235 263 237 261 264 267 244 243 234 229 226 227 228 228 219 218 213 201 199 199 191 193 193 191 189 182 175 180 181 176 171 165 162 157 158 162 164 162 155 144 131 117 105
305 301 299 260 227 238 193 275 241 249 280 279 263 252 249 242 232 230 229 226 222 220 210 201 201 197 196 199 197 193 189 184 187 188 183 180 175 170 164 160 164 168 163 156 143 129 114 107 94
345 290 286 272 210 199 161 250 260 258 253 268 272 268 261 256 238 237 236 230 225 217 208 204 198 197 200 201 198 195 190 190 192 186 184 184 179 170 163 165 168 160 157 159 154 140 110 91 79
318 255 257 285 239 184 190 241 267 278 231 258 269 272 273 275 266 248 238 232 225 217 210 201 198 198 200 200 196 192 186 191 190 183 186 186 181 173 169 170 161 155 157 167 165 137 134 123 96
235 233 246 260 272 180 223 248 267 279 247 253 266 271 272 272 271 265 247 232 226 216 208 204 200 200 194 188 180 178 184 192 189 190 192 185 182 176 169 164 160 156 160 173 171 141 118 116 122
235 252 259 260 267 257 249 256 260 270 271 263 260 263 265 268 268 270 260 237 220 211 204 202 199 197 185 187 189 191 199 196 197 197 192 187 180 175 171 167 163 167 175 176 164 146 141 135 155
255 268 270 274 267 254 266 268 262 254 256 259 259 260 262 263 274 276 270 242 221 214 208 205 203 196 193 197 196 193 184 193 196 189 184 183 178 175 177 171 174 174 168 172 182 169 150 142 162
235 231 250 257 296 295 290 279 233 245 245 257 259 256 260 263 269 278 283 278 244 229 214 210 207 200 199 191 172 147 132 116 172 191 191 187 182 180 180 177 174 175 176 185 189 187 165 149 148
252 231 242 266 292 280 267 290 222 226 243 254 259 260 259 262 265 272 289 299 263 237 219 213 207 201 194 182 182 182 191 197 196 191 189 183 184 184 182 177 177 178 181 184 189 189 187 146 148
232 248 242 253 250 274 197 265 275 190 230 247 252 257 260 264 274 292 299 296 282 251 226 214 203 199 192 189 192 193 202 205 175 165 175 180 185 186 183 179 180 182 185 186 183 184 189 169 153
222 12 353 52 82 270 200 225 279 178 207 232 247 252 261 282 311 311 312 310 306 305 271 229 206 202 192 192 194 198 201 188 172 177 182 184 183 187 189 184 186 187 186 186 186 186 186 180 161
150 133 335 321 275 256 197 229 260 233 222 215 240 262 279 301 316 320 324 327 325 321 295 239 211 208 194 195 201 204 204 195 193 187 186 184 183 192 194 190 190 190 188 185 182 185 190 184 177
183 164 185 229 251 278 233 244 253 248 268 272 270 276 296 308 313 312 311 314 312 308 281 238 218 213 199 202 208 207 203 203 204 195 191 191 194 196 187 191 192 190 185 184 183 187 190 186 184
163 205 205 217 267 284 268 267 289 258 280 273 278 298 306 312 314 311 312 317 314 310 279 233 219 218 209 209 209 210 206 209 209 199 194 196 193 185 183 187 189 188 186 185 182 189 189 186 189
202 199 132 181 222 252 269 272 271 270 255 282 321 328 319 318 319 323 333 338 343 338 318 283 247 236 225 216 215 218 214 212 207 194 200 199 191 182 181 186 189 187 188 187 186 188 185 184 187
191 192 202 211 209 224 254 264 243 304 355 342 332 325 328 338 348 353 355 359 1 1 357 343 319 288 263 240 232 231 225 216 208 206 206 200 192 186 185 187 188 188 189 189 190 191 183 186 185
212 216 209 228 238 229 244 260 292 323 343 351 354 1 5 6 6 7 8 9 9 6 2 356 345 327 301 274 249 238 232 217 214 217 211 201 197 193 190 187 189 191 192 191 193 193 188 189 188